Find ATS 5

NORAD ID: 4068 Int'l Des: 1969-069 Owner: GSFC Country: US operational
HEOCIRCULAR

Current View

Loading 3D Globe...

About ATS 5

Description loading...

Upcoming Passes

Passes for default location (London). Set your location on the main map for personalized predictions.

Altitude History

Loading altitude history...

Two-Line Element Set

1 04068U 69069A 26149.75709363 .00000013 00000-0 00000-0 0 9994
2 04068 0.2388 162.3956 0005370 117.9052 72.5280 0.99494926 46144
Epoch: May 29, 2026 • Age: 19 hours

Current Status

Altitude 35982.4 km
Velocity 3.07 km/s
Sub-Earth Point 0.19°N, 169.27°W
Type other

Most Searched